Location: Irma
(52.9170°N, 111.2330°W)
Time: 13:53:34
(UTC-06:00)

Amateur Radio Satellites - All Passes

Search period start: 30 September 2014 13:23
Search period end: 01 October 2014 13:23
Location: Irma, 52.9170°N, 111.2330°W

Satellite Date Start Highest point End Downlink Frequencies (MHz)
Time Altitude Azimuth
Oscar 11 30 Sep 13:24:27 13:26:08 12° 308° (NW) 13:27:49 145.825 FM, Beacon 2401.500 USB
FUNcube-1 30 Sep 13:45:52 13:48:42 16° 306° (NW) 13:51:30 145.950 - 145.970 MHz USB
Oscar 19 30 Sep 13:50:13 13:55:26 84° 73° (ENE) 14:00:40 437.125 CW, 437.150 USB
TMSAT-1 30 Sep 13:50:44 13:54:41 22° 54° (NE) 13:58:38 436.925 FM
MaSat-1 30 Sep 13:51:38 13:54:26 19° 34° (NNE) 13:56:59 437.345 MHz
JAS-1B 30 Sep 13:51:42 13:58:51 64° 68° (ENE) 14:04:57 435.800 - 435.900 CW/SSB
ITAMSAT 1 30 Sep 14:00:36 14:05:37 52° 67° (ENE) 14:10:41 435.822 SSB
Uribyol 2 30 Sep 14:01:36 14:06:40 56° 67° (ENE) 14:11:47 436.500 FM
Sapphire 30 Sep 14:26:15 14:30:10 20° 349° (N) 14:34:06 437.095 MHz 1200 baud AX-25 AFSK
Oscar 16 30 Sep 14:31:33 14:36:34 47° 261° (W) 14:41:36 437.025 USB, Beacon 2401.1428
HO-68 30 Sep 14:32:28 14:34:24 11° 334° (NNW) 14:36:20 435.675 MHz FM
Uosat F 30 Sep 14:32:48 14:34:17 11° 45° (NE) 14:35:46 435.120 FM
AO-27 30 Sep 14:38:42 14:43:54 83° 254° (WSW) 14:49:09 436.795 MHz FM
AO-Echo 30 Sep 14:46:38 14:51:17 63° 258° (WSW) 14:56:01 ?
PCSat 30 Sep 14:52:43 14:56:28 18° 357° (N) 15:00:13 145.825 MHz
AO-7 30 Sep 14:54:29 15:01:51 38° 49° (NE) 15:09:14 29.400 - 29.500 MHz
Gurwin Techsat 1B 30 Sep 14:59:38 15:04:56 79° 72° (ENE) 15:10:17 435.225 FM
Saudisat 1A 30 Sep 15:03:18 15:07:14 33° 121° (ESE) 15:11:12 436.775 MHz
RS-15 30 Sep 15:10:27 15:14:22 12° 269° (W) 15:18:20 29.354 - 29.394 USB, Beacon 29.352 USB
MaSat-1 30 Sep 15:27:46 15:31:29 75° 239° (WSW) 15:34:39 437.345 MHz
TMSAT-1 30 Sep 15:28:45 15:34:03 82° 255° (WSW) 15:39:24 436.925 FM
Oscar 19 30 Sep 15:31:59 15:35:28 18° 273° (W) 15:38:57 437.125 CW, 437.150 USB
ITAMSAT 1 30 Sep 15:40:54 15:45:23 29° 266° (W) 15:49:55 435.822 SSB
Uribyol 2 30 Sep 15:42:05 15:46:29 27° 267° (W) 15:50:55 436.500 FM
JAS-1B 30 Sep 15:43:36 15:49:54 31° 266° (W) 15:55:26 435.800 - 435.900 CW/SSB
Uosat F 30 Sep 16:07:11 16:11:59 49° 66° (ENE) 16:16:50 435.120 FM
Sapphire 30 Sep 16:11:28 16:15:33 21° 15° (NNE) 16:19:38 437.095 MHz 1200 baud AX-25 AFSK
AO-27 30 Sep 16:21:22 16:24:16 15° 274° (W) 16:27:11 436.795 MHz FM
Oscar 10/S400 30 Sep 16:28:04 16:42:24 25° 146° (SE) 17:05:47 145.825 - 145.975 CW/USB, Beacon 145.810 USB
PCSat 30 Sep 16:37:20 16:41:46 24° 23° (NNE) 16:46:10 145.825 MHz
Gurwin Techsat 1B 30 Sep 16:41:46 16:45:33 20° 272° (W) 16:49:22 435.225 FM
Saudisat 1A 30 Sep 16:42:23 16:46:41 51° 322° (NW) 16:51:02 436.775 MHz
AO-7 30 Sep 16:45:52 16:54:09 74° 252° (WSW) 17:02:30 29.400 - 29.500 MHz
JAS-2 30 Sep 17:07:11 17:11:53 35° 60° (ENE) 17:16:56 435.800 - 435.900 CW/SSB, 435.910 FM
TMSAT-1 30 Sep 17:11:50 17:14:50 15° 275° (W) 17:17:52 436.925 FM
Hamsat 30 Sep 17:19:58 17:23:42 29° 64° (ENE) 17:27:25 145.90 MHz
KITSAT 1 30 Sep 17:41:11 17:48:33 41° 113° (ESE) 17:55:56 435.175 FM
OPAL 30 Sep 17:45:55 17:50:17 27° 95° (E) 17:54:34 ?
Uosat F 30 Sep 17:46:39 17:51:01 30° 266° (W) 17:55:24 435.120 FM
Sapphire 30 Sep 17:55:04 18:00:19 46° 40° (NE) 18:05:32 437.095 MHz 1200 baud AX-25 AFSK
HO-68 30 Sep 18:01:11 18:03:24 12° 27° (NNE) 18:05:36 435.675 MHz FM
SO-67 30 Sep 18:19:52 18:22:01 16° 61° (ENE) 18:24:09 435.3500 MHz FM
PCSat 30 Sep 18:20:45 18:26:11 65° 46° (NE) 18:31:35 145.825 MHz
Saudisat 1A 30 Sep 18:23:46 18:27:11 21° 345° (NNW) 18:30:36 436.775 MHz
AO-7 30 Sep 18:42:44 18:48:26 20° 275° (W) 18:54:10 29.400 - 29.500 MHz
STRAND 1 30 Sep 18:48:05 18:50:02 12° 83° (E) 18:51:58 ?
JAS-2 30 Sep 18:51:59 18:56:57 45° 263° (W) 19:02:17 435.800 - 435.900 CW/SSB, 435.910 FM
Hamsat 30 Sep 18:55:28 18:59:33 40° 263° (W) 19:03:38 145.90 MHz
OPAL 30 Sep 19:24:27 19:29:29 55° 295° (WNW) 19:34:25 ?
KITSAT 1 30 Sep 19:35:31 19:43:36 70° 317° (NW) 19:51:43 435.175 FM
Sapphire 30 Sep 19:38:38 19:43:49 46° 241° (WSW) 19:48:59 437.095 MHz 1200 baud AX-25 AFSK
HO-68 30 Sep 19:42:54 19:49:01 32° 51° (NE) 19:55:09 435.675 MHz FM
SO-67 30 Sep 19:51:17 19:54:40 55° 260° (W) 19:58:06 435.3500 MHz FM
SO-50 30 Sep 19:53:35 19:57:13 24° 117° (ESE) 20:00:56 436.795 FM
PCSat 30 Sep 20:04:38 20:09:17 30° 247° (WSW) 20:13:55 145.825 MHz
Saudisat 1A 30 Sep 20:04:58 20:08:12 19° 9° (N) 20:11:25 436.775 MHz
UKube-1 30 Sep 20:07:19 20:09:04 12° 51° (NE) 20:10:49 145.840 MHz, 145.915 MHz
STRAND 1 30 Sep 20:25:03 20:30:13 69° 103° (ESE) 20:35:21 ?
ZACube-1 30 Sep 20:46:47 20:48:14 11° 49° (NE) 20:49:41 437.345 MHz
OPAL 30 Sep 21:04:55 21:07:22 14° 316° (NW) 21:09:47 ?
Oscar 11 30 Sep 21:11:41 21:15:29 30° 63° (ENE) 21:19:17 145.825 FM, Beacon 2401.500 USB
HO-68 30 Sep 21:29:03 21:36:12 77° 253° (WSW) 21:43:25 435.675 MHz FM
SO-50 30 Sep 21:32:51 21:37:23 69° 318° (NW) 21:42:05 436.795 FM
KITSAT 1 30 Sep 21:33:03 21:40:24 36° 344° (NNW) 21:47:46 435.175 FM
FUNcube-1 30 Sep 21:35:03 21:38:47 25° 60° (ENE) 21:42:34 145.950 - 145.970 MHz USB
UKube-1 30 Sep 21:40:11 21:44:29 67° 71° (ENE) 21:48:49 145.840 MHz, 145.915 MHz
Saudisat 1A 30 Sep 21:44:43 21:48:53 38° 33° (NNE) 21:53:02 436.775 MHz
UOSAT-12 30 Sep 22:02:41 22:06:57 37° 122° (ESE) 22:11:18 437.025 FM, 437.400 FM
STRAND 1 30 Sep 22:04:54 22:09:00 25° 303° (WNW) 22:13:05 ?
AO-40 30 Sep 22:16:32 00:41:36 21° 203° (SSW) 04:16:03 Beacon 2401.320
ZACube-1 30 Sep 22:19:13 22:23:41 56° 70° (ENE) 22:28:15 437.345 MHz
Oscar 11 30 Sep 22:47:27 22:51:34 40° 262° (W) 22:55:43 145.825 FM, Beacon 2401.500 USB
FUNcube-1 30 Sep 23:10:25 23:14:54 55° 260° (W) 23:19:28 145.950 - 145.970 MHz USB
SO-50 30 Sep 23:14:53 23:18:44 25° 341° (NNW) 23:22:41 436.795 FM
UKube-1 30 Sep 23:18:12 23:21:09 18° 270° (W) 23:24:07 145.840 MHz, 145.915 MHz
HO-68 30 Sep 23:20:22 23:25:08 19° 275° (W) 23:29:56 435.675 MHz FM
Saudisat 1A 30 Sep 23:24:19 23:28:37 50° 234° (SW) 23:32:53 436.775 MHz
KITSAT 1 30 Sep 23:30:49 23:38:06 35° 13° (NNE) 23:45:21 435.175 FM
UOSAT-12 30 Sep 23:42:27 23:47:02 51° 323° (NW) 23:51:41 437.025 FM, 437.400 FM
ZACube-1 30 Sep 23:56:48 00:00:26 23° 269° (W) 00:04:07 437.345 MHz
ISS 01 Oct 00:15:23 00:18:26 34° 155° (SSE) 00:21:31 145.800 FM
SO-50 01 Oct 00:57:14 01:00:45 20° 5° (N) 01:04:19 436.795 FM
RS-15 01 Oct 01:19:04 01:25:06 17° 95° (E) 01:31:04 29.354 - 29.394 USB, Beacon 29.352 USB
UOSAT-12 01 Oct 01:24:25 01:28:10 23° 346° (NNW) 01:31:57 437.025 FM, 437.400 FM
KITSAT 1 01 Oct 01:27:01 01:35:04 63° 40° (NE) 01:43:05 435.175 FM
ISS 01 Oct 01:51:35 01:54:54 70° 175° (S) 01:58:14 145.800 FM
Oscar 19 01 Oct 01:56:31 02:00:12 19° 88° (E) 02:03:50 437.125 CW, 437.150 USB
ITAMSAT 1 01 Oct 02:09:28 02:11:09 11° 83° (E) 02:12:49 435.822 SSB
Uribyol 2 01 Oct 02:10:01 02:12:09 12° 83° (E) 02:14:16 436.500 FM
Oscar 16 01 Oct 02:36:54 02:41:46 40° 97° (E) 02:46:35 437.025 USB, Beacon 2401.1428
SO-50 01 Oct 02:38:12 02:42:34 35° 29° (NNE) 02:47:01 436.795 FM
AO-27 01 Oct 02:46:05 02:50:14 23° 91° (E) 02:54:21 436.795 MHz FM
AO-Echo 01 Oct 02:47:27 02:51:42 27° 93° (E) 02:56:02 ?
UOSAT-12 01 Oct 03:06:08 03:09:48 22° 10° (N) 03:13:28 437.025 FM, 437.400 FM
Gurwin Techsat 1B 01 Oct 03:10:22 03:14:18 20° 89° (E) 03:18:11 435.225 FM
JAS-1B 01 Oct 03:19:37 03:25:09 51° 100° (E) 03:30:55 435.800 - 435.900 CW/SSB
KITSAT 1 01 Oct 03:22:44 03:30:21 47° 244° (WSW) 03:37:56 435.175 FM
RS-15 01 Oct 03:24:15 03:34:53 60° 120° (ESE) 03:45:31 29.354 - 29.394 USB, Beacon 29.352 USB
ISS 01 Oct 03:28:13 03:31:29 54° 195° (SSW) 03:34:45 145.800 FM
OPAL 01 Oct 03:29:33 03:33:22 21° 51° (NE) 03:37:11 ?
Oscar 19 01 Oct 03:34:59 03:40:10 77° 288° (WNW) 03:45:17 437.125 CW, 437.150 USB
TMSAT-1 01 Oct 03:38:47 03:43:13 26° 92° (E) 03:47:36 436.925 FM
ITAMSAT 1 01 Oct 03:46:28 03:51:42 65° 103° (ESE) 03:56:53 435.822 SSB
Uribyol 2 01 Oct 03:47:22 03:52:37 70° 104° (ESE) 03:57:50 436.500 FM
Oscar 16 01 Oct 04:16:22 04:21:08 38° 297° (WNW) 04:25:52 437.025 USB, Beacon 2401.1428
SO-50 01 Oct 04:18:44 04:23:30 68° 231° (SW) 04:28:19 436.795 FM
AO-27 01 Oct 04:25:01 04:30:13 66° 291° (WNW) 04:35:24 436.795 MHz FM
AO-Echo 01 Oct 04:25:56 04:30:45 53° 292° (WNW) 04:35:42 ?
AO-7 01 Oct 04:40:54 04:47:42 27° 90° (E) 04:54:27 29.400 - 29.500 MHz
UOSAT-12 01 Oct 04:46:31 04:51:04 43° 34° (NE) 04:55:35 437.025 FM, 437.400 FM
Gurwin Techsat 1B 01 Oct 04:49:32 04:54:52 76° 289° (WNW) 05:00:11 435.225 FM
ISS 01 Oct 05:05:17 05:07:43 19° 214° (SW) 05:10:09 145.800 FM
OPAL 01 Oct 05:06:25 05:11:40 88° 251° (WSW) 05:16:55 ?
JAS-1B 01 Oct 05:10:46 05:15:45 33° 302° (WNW) 05:20:51 435.800 - 435.900 CW/SSB
Oscar 19 01 Oct 05:15:32 05:18:45 17° 309° (NW) 05:21:57 437.125 CW, 437.150 USB
TMSAT-1 01 Oct 05:18:17 05:23:32 60° 291° (WNW) 05:28:45 436.925 FM
MaSat-1 01 Oct 05:18:56 05:21:05 13° 103° (ESE) 05:23:10 437.345 MHz
KITSAT 1 01 Oct 05:22:13 05:23:43 11° 266° (W) 05:25:12 435.175 FM
ITAMSAT 1 01 Oct 05:26:34 05:30:50 26° 303° (WNW) 05:35:06 435.822 SSB
Uribyol 2 01 Oct 05:27:30 05:31:41 25° 304° (WNW) 05:35:51 436.500 FM
RS-15 01 Oct 05:36:31 05:47:21 63° 328° (NNW) 05:58:20 29.354 - 29.394 USB, Beacon 29.352 USB
Uosat F 01 Oct 05:47:10 05:52:08 55° 101° (E) 05:57:05 435.120 FM
JAS-2 01 Oct 05:52:54 05:57:52 22° 88° (E) 06:03:13 435.800 - 435.900 CW/SSB, 435.910 FM
SO-50 01 Oct 06:00:57 06:03:16 14° 250° (WSW) 06:05:36 436.795 FM
AO-27 01 Oct 06:05:57 06:08:51 15° 311° (NW) 06:11:46 436.795 MHz FM
AO-Echo 01 Oct 06:06:49 06:08:33 12° 312° (NW) 06:10:19 ?
STRAND 1 01 Oct 06:08:51 06:13:22 33° 61° (ENE) 06:17:56 ?
UOSAT-12 01 Oct 06:26:46 06:31:20 47° 235° (SW) 06:35:49 437.025 FM, 437.400 FM
Gurwin Techsat 1B 01 Oct 06:30:41 06:34:04 17° 309° (NW) 06:37:26 435.225 FM
AO-7 01 Oct 06:33:11 06:41:32 87° 292° (WNW) 06:49:51 29.400 - 29.500 MHz
Hamsat 01 Oct 06:35:14 06:38:42 24° 92° (E) 06:42:08 145.90 MHz
OPAL 01 Oct 06:48:02 06:51:17 17° 271° (W) 06:54:33 ?
MaSat-1 01 Oct 06:52:07 06:56:55 72° 121° (ESE) 07:01:22 437.345 MHz
TMSAT-1 01 Oct 06:59:47 07:02:29 14° 312° (NW) 07:05:10 436.925 FM
Uosat F 01 Oct 07:26:24 07:30:41 29° 301° (WNW) 07:34:58 435.120 FM
JAS-2 01 Oct 07:37:11 07:43:38 89° 107° (ESE) 07:50:55 435.800 - 435.900 CW/SSB, 435.910 FM
STRAND 1 01 Oct 07:47:33 07:52:27 47° 261° (W) 07:57:25 ?
RS-15 01 Oct 07:51:36 08:01:59 45° 0° (N) 08:12:36 29.354 - 29.394 USB, Beacon 29.352 USB
Hamsat 01 Oct 08:10:50 08:14:53 44° 292° (WNW) 08:18:52 145.90 MHz
AO-7 01 Oct 08:26:34 08:33:27 31° 316° (NW) 08:40:20 29.400 - 29.500 MHz
MaSat-1 01 Oct 08:29:50 08:33:47 26° 320° (NW) 08:37:27 437.345 MHz
SO-67 01 Oct 08:41:40 08:45:09 75° 103° (ESE) 08:48:36 435.3500 MHz FM
HO-68 01 Oct 08:51:33 08:55:37 16° 83° (E) 08:59:40 435.675 MHz FM
PCSat 01 Oct 09:11:14 09:14:09 15° 104° (ESE) 09:17:05 145.825 MHz
JAS-2 01 Oct 09:23:07 09:28:09 26° 306° (NW) 09:33:38 435.800 - 435.900 CW/SSB, 435.910 FM
RS-15 01 Oct 10:05:42 10:16:38 63° 32° (NNE) 10:27:55 29.354 - 29.394 USB, Beacon 29.352 USB
MaSat-1 01 Oct 10:11:10 10:11:38 10° 342° (NNW) 10:12:05 437.345 MHz
SO-67 01 Oct 10:16:08 10:17:40 13° 302° (WNW) 10:19:13 435.3500 MHz FM
AO-7 01 Oct 10:20:01 10:23:43 14° 342° (NNW) 10:27:26 29.400 - 29.500 MHz
Sapphire 01 Oct 10:26:01 10:31:09 46° 119° (ESE) 10:36:21 437.095 MHz 1200 baud AX-25 AFSK
Oscar 11 01 Oct 10:29:05 10:32:40 25° 93° (E) 10:36:14 145.825 FM, Beacon 2401.500 USB
HO-68 01 Oct 10:37:35 10:44:46 66° 104° (ESE) 10:51:55 435.675 MHz FM
PCSat 01 Oct 10:51:16 10:56:40 72° 125° (SE) 11:02:06 145.825 MHz
FUNcube-1 01 Oct 10:54:04 10:57:36 22° 90° (E) 11:01:04 145.950 - 145.970 MHz USB
UKube-1 01 Oct 10:58:26 11:02:44 52° 101° (E) 11:07:00 145.840 MHz, 145.915 MHz
ZACube-1 01 Oct 11:38:47 11:43:18 52° 99° (E) 11:47:41 437.345 MHz
Oscar 19 01 Oct 11:43:53 11:45:42 12° 46° (NE) 11:47:31 437.125 CW, 437.150 USB
Oscar 11 01 Oct 12:04:55 12:09:05 46° 292° (WNW) 12:13:13 145.825 FM, Beacon 2401.500 USB
Sapphire 01 Oct 12:09:27 12:14:40 46° 320° (NW) 12:19:55 437.095 MHz 1200 baud AX-25 AFSK
AO-7 01 Oct 12:10:24 12:13:06 12° 10° (N) 12:15:49 29.400 - 29.500 MHz
RS-15 01 Oct 12:18:26 12:29:11 61° 240° (WSW) 12:40:22 29.354 - 29.394 USB, Beacon 29.352 USB
Oscar 16 01 Oct 12:22:25 12:26:16 22° 55° (NE) 12:30:08 437.025 USB, Beacon 2401.1428
JAS-1B 01 Oct 12:23:03 12:27:49 21° 51° (NE) 12:32:12 435.800 - 435.900 CW/SSB
HO-68 01 Oct 12:25:44 12:32:08 37° 306° (NW) 12:38:32 435.675 MHz FM
FUNcube-1 01 Oct 12:29:50 12:34:22 58° 290° (WNW) 12:38:47 145.950 - 145.970 MHz USB
AO-Echo 01 Oct 12:31:15 12:33:16 13° 49° (NE) 12:35:17 ?
AO-27 01 Oct 12:33:52 12:36:33 14° 48° (NE) 12:39:14 436.795 MHz FM
UKube-1 01 Oct 12:35:09 12:38:40 24° 300° (WNW) 12:42:11 145.840 MHz, 145.915 MHz
PCSat 01 Oct 12:35:37 12:40:33 34° 327° (NNW) 12:45:30 145.825 MHz
Gurwin Techsat 1B 01 Oct 13:01:03 13:03:25 13° 46° (NE) 13:05:48 435.225 FM
ZACube-1 01 Oct 13:15:38 13:19:26 26° 299° (WNW) 13:23:10 437.345 MHz
